This demonstration page uses our WeatherBlox Daily Observations layout. Learn more.

Left ArrowRight Arrow

Hourly Observations for September 10, 2021

Temp ( °F °C ) Dew Point ( °F °C ) Humidity (%) Winds ( mph kmh ) Pressure ( in mb ) Visibility ( mi km ) Precip ( " mm )
12:51 am 00:51 Clear 72 22.2 51 10.6 48 48 E 9 15 29.88 1012 10 16 N/A
1:51 am 01:51 Clear 74 23.3 49 9.4 41 41 ESE 9 15 29.88 1012 10 16 N/A
2:51 am 02:51 Clear 74 23.3 49 9.4 41 41 ESE 8 13 29.87 1012 10 16 N/A
3:51 am 03:51 Clear 73 22.8 50 10 44 44 ESE 7 11 29.88 1012 10 16 N/A
4:51 am 04:51 Clear 68 20 52 11.1 57 57 NW 5 7 29.91 1013 10 16 N/A
5:51 am 05:51 Clear 64 17.8 52 11.1 65 65 NW 5 7 29.94 1014 10 16 N/A
6:51 am 06:51 Sunny 68 20 54 12.2 61 61 N 5 7 29.97 1015 10 16 N/A
7:51 am 07:51 Sunny 75 23.9 52 11.1 45 45 N N/A 29.99 1016 10 16 N/A
8:51 am 08:51 Sunny 81 27.2 52 11.1 37 37 N N/A 29.98 1015 10 16 N/A
9:51 am 09:51 Sunny 89 31.7 53 11.7 29 29 ESE 9 15 29.97 1015 10 16 N/A
10:51 am 10:51 Sunny 91 32.8 53 11.7 27 27 VRB 5 7 29.95 1014 10 16 N/A
11:51 am 11:51 Sunny 95 35 54 12.2 25 25 N N/A 29.93 1014 10 16 N/A
12:51 pm 12:51 Sunny 96 35.6 47 8.3 19 19 S 13 20 29.92 1013 10 16 N/A
1:51 pm 13:51 Sunny 96 35.6 47 8.3 19 19 VRB 3 6 29.89 1012 10 16 N/A
2:51 pm 14:51 Sunny 97 36.1 47 8.3 18 18 N 7 11 29.86 1011 10 16 N/A
3:51 pm 15:51 Sunny 98 36.7 48 8.9 18 18 ENE 7 11 29.84 1010 10 16 N/A
4:51 pm 16:51 Sunny 96 35.6 48 8.9 19 19 NNW 6 9 29.85 1011 10 16 N/A
5:51 pm 17:51 Sunny 93 33.9 51 10.6 24 24 NW 6 9 29.86 1011 10 16 N/A
6:51 pm 18:51 Clear 84 28.9 55 12.8 37 37 NNW 7 11 29.88 1012 10 16 N/A
7:51 pm 19:51 Clear 81 27.2 53 11.7 38 38 WNW 5 7 29.88 1012 10 16 N/A
8:51 pm 20:51 Clear 77 25 54 12.2 45 45 NE 3 6 29.90 1013 10 16 N/A
9:51 pm 21:51 Clear 73 22.8 55 12.8 53 53 ESE 6 9 29.89 1012 10 16 N/A
10:51 pm 22:51 Clear 73 22.8 54 12.2 51 51 SE 5 7 29.89 1012 10 16 N/A
11:51 pm 23:51 Clear 71 21.7 54 12.2 55 55 E 5 7 29.90 1012 10 16 N/A

Powered by AerisWeather